, NV

(GMT )
Eureka Airport

Weather History for K05U - January, 2014

Change the Weather History Date:

Monday, January 13, 2014

  Actual Average Record
Temperature  
Mean Temperature 32 °F -  
Max Temperature 42 °F - - ()
Min Temperature 21 °F - - ()
Degree Days  
Heating Degree Days 34    
Moisture  
Dew Point 21 °F    
Average Humidity 72    
Maximum Humidity 93    
Minimum Humidity 48    
Precipitation  
Precipitation 0.00 in - - ()
Sea Level Pressure  
Sea Level Pressure 30.53 in    
Wind  
Wind Speed 3 mph (South)    
Max Wind Speed 9 mph    
Max Gust Speed -    
Visibility 10 miles    
Events      
Averages and records for this station are not official NWS values.
T = Trace of Precipitation, MM = Missing Value Source: NWS Daily Summary

Daily Weather History Graph

Daily Weather History Graph

Search for Another Location

Airport or City:

Trip Planner

Search our weather history database for the weather conditions in past years. The results will help you decide how hot, cold, wet, or windy it might be!

Date:

Astronomy

Jan. 13, 2014 Rise Set
Actual Time 7:03 AM PST 4:42 PM PST
Civil Twilight 6:33 AM PST 5:11 PM PST
Nautical Twilight 6:00 AM PST 5:45 PM PST
Astronomical Twilight 5:28 AM PST 6:17 PM PST
Moon 3:00 PM PST (1/13) 4:55 AM PST (1/13)
Length of Visible Light 10h 38m
Length of Day
9h 38m
Waxing Gibbous, 95% of the Moon is Illuminated
Jan 13
Waxing Gibbous
Jan 15
Full
Jan 23
Last Quarter
Jan 30
New
Feb 6
First Quarter

Hourly Weather History & Observations

Time (PST) Temp. Windchill Dew Point Humidity Pressure Visibility Wind Dir Wind Speed Gust Speed Precip Events Conditions
12:05 AM 24.8 °F - 19.4 °F 80% 30.46 in 10.0 mi Calm Calm - N/A   Scattered Clouds
12:25 AM 24.8 °F - 19.4 °F 80% 30.45 in 10.0 mi Calm Calm - N/A   Clear
12:45 AM 23.0 °F - 19.4 °F 86% 30.45 in 10.0 mi Calm Calm - N/A   Clear
1:05 AM 23.0 °F 15.8 °F 19.4 °F 86% 30.45 in 10.0 mi SSE 5.8 mph - N/A   Clear
1:25 AM 23.0 °F 15.8 °F 19.4 °F 86% 30.46 in 10.0 mi South 5.8 mph - N/A   Clear
1:45 AM 24.8 °F 16.9 °F 17.6 °F 74% 30.47 in 10.0 mi SSW 6.9 mph - N/A   Scattered Clouds
2:05 AM 23.0 °F 15.8 °F 17.6 °F 80% 30.48 in 10.0 mi South 5.8 mph - N/A   Scattered Clouds
2:25 AM 23.0 °F - 17.6 °F 80% 30.49 in 10.0 mi Calm Calm - N/A   Mostly Cloudy
2:45 AM 23.0 °F 18.4 °F 17.6 °F 80% 30.51 in 10.0 mi SSE 3.5 mph - N/A   Mostly Cloudy
3:05 AM 24.8 °F 17.9 °F 19.4 °F 80% 30.51 in 10.0 mi South 5.8 mph - N/A   Overcast
3:25 AM 26.6 °F 22.6 °F 19.4 °F 74% 30.51 in 10.0 mi SW 3.5 mph - N/A   Overcast
3:45 AM 24.8 °F - 19.4 °F 80% 30.52 in 10.0 mi Calm Calm - N/A   Overcast
4:05 AM 24.8 °F 19.1 °F 19.4 °F 80% 30.51 in 10.0 mi SSW 4.6 mph - N/A   Overcast
4:25 AM 26.6 °F 20.0 °F 19.4 °F 74% 30.51 in 10.0 mi South 5.8 mph - N/A   Overcast
4:45 AM 26.6 °F 21.2 °F 19.4 °F 74% 30.51 in 10.0 mi South 4.6 mph - N/A   Overcast
5:05 AM 24.8 °F 20.5 °F 17.6 °F 74% 30.51 in 10.0 mi SSE 3.5 mph - N/A   Mostly Cloudy
5:25 AM 23.0 °F 14.7 °F 17.6 °F 80% 30.51 in 10.0 mi South 6.9 mph - N/A   Scattered Clouds
5:45 AM 23.0 °F 18.4 °F 17.6 °F 80% 30.52 in 10.0 mi SSE 3.5 mph - N/A   Partly Cloudy
6:05 AM 23.0 °F - 17.6 °F 80% 30.52 in 10.0 mi Calm Calm - N/A   Clear
6:25 AM 23.0 °F 15.8 °F 17.6 °F 80% 30.52 in 10.0 mi SW 5.8 mph - N/A   Clear
6:45 AM 23.0 °F 18.4 °F 17.6 °F 80% 30.53 in 10.0 mi SSW 3.5 mph - N/A   Clear
7:05 AM 21.2 °F 10.9 °F 17.6 °F 86% 30.53 in 10.0 mi SSW 9.2 mph - N/A   Clear
7:25 AM 23.0 °F 15.8 °F 17.6 °F 80% 30.54 in 10.0 mi SSW 5.8 mph - N/A   Clear
7:45 AM 23.0 °F 15.8 °F 17.6 °F 80% 30.55 in 10.0 mi SSW 5.8 mph - N/A   Clear
8:05 AM 23.0 °F 13.9 °F 17.6 °F 80% 30.55 in 10.0 mi SSW 8.1 mph - N/A   Clear
8:25 AM 24.8 °F 16.1 °F 17.6 °F 74% 30.56 in 10.0 mi SW 8.1 mph - N/A   Clear
8:45 AM 26.6 °F - 17.6 °F 69% 30.57 in 10.0 mi Calm Calm - N/A   Clear
9:05 AM 28.4 °F 22.2 °F 19.4 °F 69% 30.58 in 10.0 mi SSW 5.8 mph - N/A   Clear
9:25 AM 32.0 °F - 19.4 °F 60% 30.59 in 10.0 mi Calm Calm - N/A   Clear
9:45 AM 32.0 °F - 19.4 °F 60% 30.59 in 10.0 mi Calm Calm - N/A   Clear
10:05 AM 32.0 °F 28.7 °F 19.4 °F 60% 30.60 in 10.0 mi NE 3.5 mph - N/A   Clear
10:25 AM 33.8 °F - 19.4 °F 56% 30.59 in 10.0 mi Calm Calm - N/A   Clear
10:45 AM 35.6 °F 32.8 °F 19.4 °F 52% 30.59 in 10.0 mi ESE 3.5 mph - N/A   Clear
11:05 AM 35.6 °F - 19.4 °F 52% 30.58 in 10.0 mi Calm Calm - N/A   Clear
11:25 AM 35.6 °F - 19.4 °F 52% 30.57 in 10.0 mi Calm Calm - N/A   Clear
11:45 AM 37.4 °F - 19.4 °F 48% 30.56 in 10.0 mi Calm Calm - N/A   Clear
12:05 PM 37.4 °F - 21.2 °F 52% 30.55 in 10.0 mi Calm Calm - N/A   Clear
12:25 PM 39.2 °F 37.0 °F 23.0 °F 52% 30.53 in 10.0 mi South 3.5 mph - N/A   Clear
12:45 PM 41.0 °F - 23.0 °F 49% 30.52 in 10.0 mi Calm Calm - N/A   Clear
1:05 PM 41.0 °F 35.8 °F 23.0 °F 49% 30.51 in 10.0 mi WSW 8.1 mph - N/A   Clear
1:25 PM 41.0 °F 39.0 °F 23.0 °F 49% 30.50 in 10.0 mi ENE 3.5 mph - N/A   Clear
1:45 PM 41.0 °F 37.1 °F 24.8 °F 53% 30.50 in 10.0 mi NE 5.8 mph - N/A   Clear
2:05 PM 41.0 °F 39.0 °F 23.0 °F 49% 30.50 in 10.0 mi ENE 3.5 mph - N/A   Clear
2:25 PM 41.0 °F 36.4 °F 24.8 °F 53% 30.51 in 10.0 mi ENE 6.9 mph - N/A   Clear
2:45 PM 41.0 °F 36.4 °F 26.6 °F 57% 30.51 in 10.0 mi East 6.9 mph - N/A   Clear
3:05 PM 41.0 °F 39.0 °F 24.8 °F 53% 30.50 in 10.0 mi ESE 3.5 mph - N/A   Clear
3:25 PM 42.8 °F 41.1 °F 24.8 °F 49% 30.50 in 10.0 mi ESE 3.5 mph - N/A   Clear
3:45 PM 41.0 °F 39.0 °F 24.8 °F 53% 30.50 in 10.0 mi East 3.5 mph - N/A   Clear
4:05 PM 41.0 °F - 24.8 °F 53% 30.50 in 10.0 mi Calm Calm - N/A   Clear
4:25 PM 39.2 °F 35.9 °F 26.6 °F 61% 30.51 in 10.0 mi NE 4.6 mph - N/A   Clear
4:45 PM 37.4 °F 32.8 °F 24.8 °F 60% 30.50 in 10.0 mi NNW 5.8 mph - N/A   Clear
5:05 PM 32.0 °F 27.5 °F 24.8 °F 75% 30.51 in 10.0 mi North 4.6 mph - N/A   Clear
5:25 PM 32.0 °F 28.7 °F 24.8 °F 75% 30.51 in 10.0 mi NW 3.5 mph - N/A   Clear
5:45 PM 30.2 °F - 24.8 °F 80% 30.52 in 10.0 mi Calm Calm - N/A   Clear
6:05 PM 30.2 °F 25.4 °F 24.8 °F 80% 30.53 in 10.0 mi SSW 4.6 mph - N/A   Clear
6:25 PM 28.4 °F 22.2 °F 24.8 °F 86% 30.54 in 10.0 mi SSW 5.8 mph - N/A   Clear
6:45 PM 26.6 °F 18.2 °F 23.0 °F 86% 30.54 in 10.0 mi SSW 8.1 mph - N/A   Clear
7:05 PM 28.4 °F 22.2 °F 24.8 °F 86% 30.55 in 10.0 mi SW 5.8 mph - N/A   Clear
7:25 PM 28.4 °F 22.2 °F 24.8 °F 86% 30.56 in 10.0 mi ESE 5.8 mph - N/A   Clear
7:45 PM 28.4 °F 24.6 °F 23.0 °F 80% 30.57 in 10.0 mi SE 3.5 mph - N/A   Clear
8:05 PM 26.6 °F 21.2 °F 23.0 °F 86% 30.57 in 10.0 mi West 4.6 mph - N/A   Clear
8:25 PM 26.6 °F - 23.0 °F 86% 30.57 in 10.0 mi Calm Calm - N/A   Clear
8:45 PM 26.6 °F 20.0 °F 23.0 °F 86% 30.58 in 10.0 mi ESE 5.8 mph - N/A   Clear
9:05 PM 24.8 °F - 23.0 °F 93% 30.58 in 10.0 mi Calm Calm - N/A   Clear
9:25 PM 24.8 °F - 23.0 °F 93% 30.58 in 10.0 mi Calm Calm - N/A   Clear
9:45 PM 26.6 °F - 23.0 °F 86% 30.58 in 10.0 mi Calm Calm - N/A   Clear
10:05 PM 24.8 °F - 21.2 °F 86% 30.58 in 10.0 mi Calm Calm - N/A   Clear
10:25 PM 24.8 °F - 21.2 °F 86% 30.59 in 10.0 mi Calm Calm - N/A   Clear
10:45 PM 24.8 °F - 19.4 °F 80% 30.59 in 10.0 mi Calm Calm - N/A   Clear
11:05 PM 24.8 °F 20.5 °F 19.4 °F 80% 30.59 in 10.0 mi SSE 3.5 mph - N/A   Clear
11:25 PM 23.0 °F 18.4 °F 19.4 °F 86% 30.59 in 10.0 mi South 3.5 mph - N/A   Clear
11:45 PM 23.0 °F - 19.4 °F 86% 30.60 in 10.0 mi Calm Calm - N/A   Clear